Temp
7 7 7 7 7 7 8 7 8 8 7 7 7 7 7 7 7 7 7 6 6 6 6 6 5 5 5 5 5 4 5 6 6 6 7 7 7 6 7 7 7 7 6 5 5
6 7 7 7 7 7 7 7 7 8 7 7 7 7 7 7 7 7 7 7 6 6 6 6 6 5 5 5 5 4 6 6 6 7 7 7 6 6 6 6 6 6 5 5 5
6 6 6 7 7 7 7 7 7 7 7 7 7 7 7 7 7 6 6 6 6 6 6 6 6 6 5 5 5 5 7 6 7 7 7 7 6 6 6 6 5 5 5 5 4
5 6 6 6 7 7 7 7 7 7 7 7 7 7 7 7 6 6 6 6 6 6 6 5 5 5 5 5 5 6 6 6 7 7 7 6 6 6 6 6 5 5 5 3 3
5 5 6 6 6 6 6 6 7 7 7 7 7 7 7 7 6 6 6 5 6 6 5 5 5 5 6 6 6 6 7 7 7 7 7 7 7 6 6 5 5 4 4 4 3
5 5 5 5 6 6 6 6 6 7 7 7 7 7 7 7 6 6 6 5 5 5 5 5 5 5 6 6 6 6 7 7 7 7 6 6 7 6 6 5 4 5 4 4 3
4 5 5 5 5 6 6 6 6 6 7 7 7 7 7 6 6 6 6 6 5 5 5 5 5 5 6 6 6 7 7 8 7 7 6 7 7 6 6 5 5 5 5 4 4
4 4 5 5 5 5 5 5 6 6 6 7 7 7 7 7 6 6 6 5 5 5 5 5 5 5 5 6 7 7 7 7 7 7 7 7 7 6 5 5 5 5 5 4 4
4 4 4 4 5 5 5 5 5 6 6 7 7 7 6 7 6 6 6 5 5 5 5 5 5 5 6 6 7 7 7 7 7 7 7 7 6 6 6 5 5 5 5 5 5
5 3 4 4 4 4 4 4 5 5 6 6 7 6 6 6 6 6 6 6 6 5 5 5 5 5 6 6 7 7 7 7 7 7 7 7 7 6 6 6 6 6 6 6 6
4 4 3 4 4 4 3 4 4 5 6 6 7 6 6 6 6 6 6 6 6 6 5 6 6 6 6 6 6 7 7 7 7 7 7 7 7 7 6 6 5 6 7 7 7
2 3 3 3 3 3 3 3 4 5 6 6 6 7 6 6 6 6 6 5 6 6 5 6 6 6 6 7 6 7 7 8 8 8 8 8 7 6 6 7 6 6 6 7 6
1 2 3 3 3 3 2 3 4 4 5 7 6 7 6 6 6 6 6 6 6 6 6 6 7 7 7 7 7 7 7 7 7 7 9 8 7 6 6 6 6 6 6 6 6
1 1 2 2 3 2 2 2 3 3 4 7 7 7 6 5 6 6 6 6 6 6 6 6 6 6 7 7 7 7 7 7 7 7 8 8 6 6 7 7 6 6 6 7 7
1 1 1 1 2 2 2 2 2 3 -0 6 6 5 6 6 6 6 6 5 6 6 6 6 6 6 6 7 7 7 7 7 7 7 7 7 7 8 7 6 6 7 6 6 6
1 1 1 1 1 1 2 1 2 2 0 6 5 6 5 5 6 6 6 5 6 6 6 6 6 6 6 7 7 6 7 7 7 7 4 7 7 7 7 8 8 8 7 7 6
0 0 1 1 1 0 -1 0 0 -0 4 5 5 6 6 5 5 5 6 5 6 6 6 6 6 6 7 6 7 7 7 6 5 2 2 6 6 8 8 8 8 8 8 8 7
0 -0 1 1 1 -0 -2 -1 -1 1 5 5 5 6 6 6 6 5 5 6 6 6 6 6 6 6 6 6 7 7 7 7 4 1 4 6 6 8 8 8 8 8 8 7 7
-0 -1 0 1 0 -1 -1 -2 -1 3 4 5 5 5 5 6 5 5 5 6 6 6 6 6 6 6 6 6 7 7 7 7 6 4 3 6 7 8 8 8 9 9 9 8 7
-1 -1 -0 0 -0 -2 -2 -1 -1 3 3 4 4 5 6 6 5 5 6 6 6 6 6 6 6 6 7 7 7 7 7 6 6 3 3 5 6 7 8 8 8 8 8 8 8
-1 -2 -1 -0 -1 -3 -1 -3 -1 2 3 3 4 5 6 6 5 6 6 6 6 6 6 6 6 6 7 7 7 7 6 6 6 6 0 -0 6 7 7 8 8 8 7 7 7
-2 -2 -2 -1 -4 -2 -1 -2 -0 2 2 3 4 4 5 6 6 6 6 6 6 6 6 6 6 6 6 7 7 7 7 6 6 5 5 4 6 7 7 7 7 7 7 7 7
-4 -5 -5 -3 -3 -0 -1 -1 -0 2 2 2 3 4 5 6 6 6 6 6 6 6 7 6 6 6 6 6 7 6 6 7 6 6 6 3 6 7 7 7 7 7 6 7 7
-8 -7 -5 -4 -0 -1 -3 -2 -1 2 2 1 2 3 4 5 6 6 7 6 6 6 7 7 6 6 5 7 7 6 7 6 6 6 6 6 7 7 7 7 6 7 6 6 6
-8 -7 -5 -4 -1 -1 -3 -2 -0 -0 2 2 3 3 3 4 5 6 7 6 6 6 6 6 6 6 6 6 6 6 6 6 6 6 6 6 6 7 7 6 7 7 6 6 6
-8 -7 -6 -2 -1 -2 -3 -4 -1 1 -0 3 2 4 4 4 5 6 6 6 6 6 6 6 6 6 6 6 6 6 6 6 5 5 5 6 6 6 7 7 6 6 6 5 5
-8 -6 -6 -4 -2 -3 -0 -2 0 0 2 2 3 4 4 4 5 5 6 6 6 6 6 6 6 6 6 6 5 4 5 6 5 5 5 5 6 6 6 6 6 6 6 5 5
Height
3155 3155 3155 3155 3154 3153 3152 3149 3147 3145 3142 3140 3137 3135 3132 3129 3128 3127 3125 3125 3122 3118 3117 3116 3118 3120 3121 3122 3123 3124 3125 3125 3124 3123 3122 3122 3122 3122 3123 3125 3126 3126 3127 3127 3128
3151 3151 3151 3151 3150 3149 3148 3146 3144 3142 3140 3138 3136 3133 3130 3127 3127 3125 3125 3123 3120 3119 3117 3117 3119 3121 3122 3122 3122 3123 3125 3124 3124 3122 3122 3122 3123 3123 3123 3124 3125 3125 3126 3126 3128
3146 3146 3147 3147 3147 3145 3144 3143 3141 3139 3139 3136 3133 3131 3128 3126 3126 3125 3124 3122 3120 3119 3118 3119 3120 3121 3121 3122 3123 3123 3123 3124 3123 3122 3122 3122 3121 3122 3122 3124 3125 3127 3127 3126 3126
3140 3142 3142 3142 3142 3141 3140 3139 3138 3136 3136 3134 3131 3129 3126 3125 3127 3124 3124 3122 3120 3120 3120 3120 3121 3122 3123 3124 3124 3123 3123 3123 3122 3123 3122 3123 3121 3123 3124 3124 3125 3127 3128 3128 3125
3135 3136 3137 3137 3137 3137 3136 3135 3134 3133 3132 3131 3128 3127 3125 3124 3124 3123 3124 3122 3121 3120 3120 3122 3122 3122 3122 3123 3123 3122 3121 3121 3122 3123 3123 3123 3123 3125 3123 3122 3123 3126 3128 3129 3125
3128 3129 3131 3132 3132 3132 3132 3131 3131 3129 3129 3128 3125 3125 3123 3123 3122 3123 3124 3123 3122 3121 3121 3122 3122 3122 3123 3122 3123 3121 3121 3122 3122 3123 3124 3125 3126 3126 3124 3123 3124 3128 3128 3130 3130
3121 3123 3124 3126 3127 3127 3127 3126 3126 3125 3125 3124 3122 3122 3121 3122 3121 3123 3124 3123 3122 3122 3123 3122 3122 3123 3122 3122 3122 3122 3123 3122 3122 3123 3124 3127 3127 3126 3125 3125 3127 3128 3129 3131 3132
3114 3116 3118 3120 3121 3122 3123 3122 3121 3120 3121 3120 3120 3119 3119 3119 3121 3123 3124 3124 3122 3123 3123 3122 3122 3123 3122 3122 3122 3123 3124 3122 3123 3125 3126 3129 3130 3130 3128 3126 3127 3129 3130 3132 3133
3110 3111 3112 3113 3115 3117 3118 3117 3117 3116 3117 3116 3117 3116 3117 3118 3120 3122 3124 3123 3123 3122 3122 3121 3122 3122 3124 3123 3123 3122 3122 3124 3125 3126 3127 3128 3130 3130 3129 3129 3129 3129 3131 3133 3134
3104 3106 3107 3107 3110 3112 3113 3114 3112 3112 3112 3113 3113 3116 3115 3116 3116 3119 3122 3122 3122 3121 3122 3120 3120 3121 3122 3123 3123 3121 3122 3123 3124 3127 3126 3127 3129 3129 3131 3132 3131 3131 3133 3134 3135
3098 3100 3102 3103 3104 3107 3109 3109 3110 3109 3107 3109 3110 3109 3110 3112 3114 3118 3120 3120 3121 3121 3120 3119 3120 3120 3122 3122 3122 3121 3122 3123 3125 3126 3126 3125 3127 3127 3130 3131 3133 3132 3133 3135 3137
3092 3094 3097 3099 3098 3101 3103 3103 3104 3105 3102 3103 3104 3105 3107 3108 3111 3115 3118 3119 3119 3120 3120 3120 3120 3121 3121 3121 3121 3122 3121 3123 3123 3124 3124 3124 3125 3128 3128 3130 3131 3132 3133 3135 3136
3087 3090 3092 3094 3092 3096 3097 3099 3101 3100 3098 3098 3098 3100 3104 3106 3108 3111 3115 3117 3118 3119 3119 3118 3120 3120 3121 3121 3121 3121 3122 3122 3121 3119 3120 3122 3123 3126 3127 3128 3129 3130 3131 3132 3134
3081 3084 3087 3088 3092 3092 3092 3096 3099 3096 3097 3093 3092 3095 3097 3101 3104 3108 3111 3116 3116 3117 3119 3118 3117 3119 3120 3120 3122 3121 3121 3120 3120 3121 3119 3121 3123 3123 3123 3125 3126 3127 3128 3131 3132
3072 3078 3081 3082 3086 3089 3091 3093 3096 3098 3100 3090 3087 3088 3093 3098 3101 3104 3109 3111 3113 3115 3118 3117 3116 3117 3117 3117 3121 3121 3120 3118 3118 3119 3119 3121 3122 3120 3122 3122 3122 3122 3123 3125 3128
3064 3070 3073 3077 3081 3083 3087 3090 3095 3099 3091 3086 3084 3084 3088 3093 3099 3101 3105 3109 3112 3114 3114 3115 3114 3112 3114 3118 3119 3120 3120 3119 3118 3118 3118 3118 3120 3118 3117 3116 3115 3117 3119 3121 3122
3054 3061 3066 3072 3077 3077 3083 3086 3092 3087 3085 3082 3080 3081 3085 3088 3095 3098 3101 3105 3108 3110 3111 3112 3113 3113 3115 3117 3118 3118 3118 3118 3119 3119 3118 3116 3117 3115 3115 3113 3112 3114 3116 3119 3119
3043 3051 3057 3064 3069 3073 3079 3083 3078 3072 3077 3076 3078 3081 3083 3086 3091 3095 3098 3101 3104 3107 3108 3110 3112 3111 3112 3113 3115 3116 3117 3116 3119 3121 3115 3114 3113 3111 3110 3111 3110 3110 3111 3112 3115
3032 3039 3046 3056 3061 3067 3074 3069 3064 3065 3071 3073 3075 3078 3080 3082 3087 3090 3094 3097 3101 3103 3107 3107 3108 3109 3110 3111 3114 3115 3115 3116 3114 3115 3115 3112 3111 3109 3108 3107 3106 3107 3108 3108 3111
3020 3027 3034 3049 3054 3059 3063 3053 3057 3064 3067 3069 3071 3073 3075 3079 3083 3085 3089 3093 3096 3099 3102 3105 3106 3106 3108 3109 3112 3113 3114 3114 3113 3115 3116 3110 3109 3108 3106 3106 3105 3106 3107 3107 3107
3009 3016 3022 3039 3045 3051 3039 3041 3051 3060 3064 3066 3067 3069 3073 3075 3078 3081 3086 3091 3092 3095 3098 3099 3103 3105 3106 3106 3108 3111 3109 3110 3109 3110 3110 3113 3107 3106 3106 3105 3105 3106 3105 3105 3105
2994 3003 3011 3027 3034 3031 3028 3036 3045 3052 3059 3061 3062 3066 3068 3072 3075 3078 3082 3085 3087 3090 3092 3095 3097 3100 3103 3104 3105 3105 3106 3106 3106 3106 3105 3105 3103 3104 3104 3103 3104 3104 3105 3104 3104
2978 2992 3004 3016 3017 3012 3022 3030 3040 3045 3051 3054 3060 3063 3066 3067 3072 3074 3077 3081 3083 3085 3086 3089 3093 3095 3098 3101 3100 3099 3101 3102 3102 3101 3100 3102 3101 3101 3100 3100 3101 3101 3102 3103 3103
2970 2984 2995 3000 3004 3008 3014 3021 3029 3035 3043 3048 3053 3058 3061 3062 3065 3069 3073 3076 3078 3082 3083 3084 3087 3089 3091 3094 3097 3097 3098 3099 3099 3097 3096 3095 3096 3098 3097 3097 3097 3097 3097 3099 3099
2957 2967 2970 2976 2984 2994 3007 3012 3021 3025 3032 3042 3046 3051 3057 3060 3062 3065 3068 3071 3075 3078 3079 3080 3081 3086 3089 3090 3092 3093 3095 3095 3094 3093 3091 3091 3090 3092 3093 3093 3092 3092 3093 3095 3095
2946 2956 2965 2972 2983 2990 2996 2998 3009 3018 3026 3031 3039 3048 3054 3055 3059 3063 3065 3066 3070 3074 3075 3076 3078 3083 3086 3087 3088 3089 3091 3091 3090 3089 3087 3087 3086 3087 3087 3088 3088 3088 3088 3089 3090
2937 2950 2960 2966 2973 2980 2974 2988 2999 3015 3021 3030 3039 3045 3048 3053 3057 3060 3063 3064 3066 3068 3071 3074 3075 3079 3081 3083 3083 3082 3083 3085 3085 3084 3084 3082 3084 3083 3084 3085 3083 3083 3085 3086 3087
Wind_Speed
23 21 20 20 20 20 21 21 22 23 22 22 22 22 17 14 11 10 10 14 10 10 6 3 10 6 6 4 6 10 6 5 1 5 14 8 5 5 5 5 9 12 9 6 5
23 22 21 21 21 21 21 21 22 23 22 22 22 20 15 12 9 8 12 12 8 7 4 4 6 5 3 7 10 9 6 4 1 8 14 7 5 1 10 6 9 8 6 6 7
26 25 24 23 23 22 22 21 22 21 22 21 20 19 14 9 8 5 11 9 4 2 2 5 7 5 10 10 9 6 3 1 3 6 10 11 5 6 9 8 6 5 4 8 9
28 28 27 26 24 23 23 21 22 20 22 20 19 17 11 7 3 6 6 10 5 1 4 6 7 8 6 5 2 10 10 10 5 6 10 4 3 6 9 8 8 6 2 9 4
30 29 28 27 26 24 24 21 21 20 21 19 18 15 9 5 3 3 3 10 10 2 9 11 10 7 4 8 8 4 5 3 2 5 5 6 5 3 4 12 10 4 8 12 21
30 29 28 27 26 25 24 21 20 19 19 18 17 13 8 5 3 3 4 6 7 4 12 8 5 5 3 3 7 10 2 1 3 4 6 8 7 2 3 6 8 6 7 16 11
28 29 28 26 26 25 24 21 20 18 19 17 15 11 8 7 6 8 5 3 5 9 7 4 4 2 4 1 2 3 3 1 5 11 12 5 7 1 4 7 10 10 13 17 12
21 25 27 26 27 26 24 21 20 18 18 16 15 10 6 5 6 9 5 3 4 11 9 8 10 5 5 3 7 9 3 5 10 12 9 4 6 3 3 8 8 7 11 14 10
20 19 25 26 26 26 25 23 21 19 17 15 14 10 8 6 9 11 7 5 3 3 14 15 11 11 8 3 3 6 5 7 12 12 1 9 7 8 6 8 10 5 10 8 13
29 18 20 22 24 24 25 24 21 20 18 14 14 9 9 12 18 17 12 5 4 3 1 8 10 10 8 3 3 3 1 6 10 12 9 8 14 11 8 7 8 5 9 9 12
25 20 18 20 23 23 23 24 21 21 19 15 11 13 13 17 18 17 13 6 6 5 3 5 4 6 6 4 4 6 4 3 1 9 18 17 15 13 10 10 12 7 7 11 12
31 24 22 20 20 21 22 23 21 21 20 16 16 16 19 22 21 20 16 12 10 3 2 1 2 3 2 3 3 5 3 6 6 11 13 12 16 18 15 10 9 7 7 11 11
26 30 26 22 17 20 22 23 19 20 19 17 21 16 24 24 23 24 21 15 10 6 6 4 3 5 4 8 5 1 5 11 16 4 10 14 16 21 19 17 17 18 13 12 7
30 25 25 19 16 16 22 20 16 15 13 18 15 17 30 28 25 22 24 18 15 9 9 9 7 9 10 12 7 9 5 13 7 5 6 9 6 24 22 21 22 24 24 16 16
34 29 24 22 20 18 19 18 10 11 4 6 14 14 30 30 12 23 23 22 20 16 9 11 4 9 14 21 18 11 16 12 8 7 11 11 4 17 27 27 27 25 31 29 23
39 33 29 24 21 19 22 17 13 9 8 6 14 18 33 32 15 14 27 26 19 16 17 11 6 8 19 15 11 15 15 8 9 7 1 5 6 8 20 21 24 22 24 26 30
43 38 35 26 21 25 21 19 13 10 9 11 19 20 30 34 29 16 29 27 21 15 18 13 7 9 14 18 17 13 12 3 1 1 4 5 4 11 10 17 21 26 28 29 28
47 43 39 31 26 25 24 24 17 11 24 9 19 20 23 30 27 21 23 27 24 22 12 16 8 12 9 7 11 8 8 4 3 3 3 7 6 11 8 13 17 19 20 24 23
52 48 45 38 32 30 32 36 18 17 23 15 21 24 24 26 24 25 25 23 23 25 24 12 14 10 12 5 7 8 6 6 2 2 1 4 9 11 13 11 13 10 11 15 22
57 53 52 40 37 34 41 48 29 32 11 19 18 24 27 24 26 25 24 23 22 20 14 22 3 15 14 11 9 11 8 4 2 2 3 5 6 9 8 7 5 6 7 12 15
59 56 57 45 41 39 55 46 37 31 22 12 17 19 29 25 27 27 23 27 22 25 24 23 19 10 17 14 14 17 15 11 7 5 4 1 4 7 8 4 2 2 5 8 14
61 59 56 51 47 52 59 51 42 46 34 26 18 19 26 29 26 27 28 26 18 21 27 23 22 22 19 20 19 24 24 14 6 5 7 7 13 11 14 11 7 7 7 5 9
61 49 35 51 55 63 57 54 48 47 46 38 23 15 15 22 30 28 28 26 27 20 23 25 26 18 18 22 20 18 22 18 19 18 16 10 11 8 11 17 15 17 11 11 6
52 41 38 47 64 60 57 51 55 50 47 45 36 24 15 12 20 33 29 29 24 20 15 20 26 24 25 20 19 20 20 21 21 21 19 24 24 16 16 18 18 16 14 15 13
52 46 52 61 69 68 54 52 56 55 46 44 47 40 22 15 15 18 25 25 20 22 20 23 25 17 21 17 18 17 16 18 18 17 19 21 20 15 17 15 12 12 14 17 16
53 48 47 55 65 68 58 56 48 58 42 47 47 42 28 23 14 19 20 27 25 26 27 25 17 23 20 18 19 22 24 19 19 18 18 15 14 11 16 19 15 11 18 20 19
62 45 44 61 52 60 76 64 61 52 53 44 38 41 34 21 17 13 19 22 27 27 29 26 25 21 22 21 21 22 31 32 29 26 24 22 20 20 19 15 16 16 17 22 19
Wind_Direction
274 277 283 288 293 297 301 306 309 312 316 322 326 330 332 333 330 334 338 336 336 339 326 253 191 197 204 221 191 198 205 168 297 334 4 352 294 261 220 183 203 228 245 246 253
271 273 278 284 289 293 297 301 304 309 313 320 323 327 327 332 325 340 335 334 344 351 346 134 170 163 174 194 199 205 213 222 318 1 350 357 241 314 228 230 242 233 236 256 219
266 269 273 278 284 289 292 296 299 306 310 316 321 323 324 329 318 340 334 342 345 20 79 137 147 177 150 179 193 210 203 290 289 340 342 339 268 247 223 248 233 271 268 284 217
263 267 270 274 278 283 287 291 293 301 306 313 319 320 320 323 322 339 350 37 35 142 140 148 139 129 100 55 222 286 296 282 287 346 328 323 129 195 216 259 224 235 122 62 246
262 264 266 269 272 276 279 283 286 296 301 309 316 314 310 297 297 339 74 56 45 123 148 138 133 115 82 34 353 322 329 240 342 322 291 109 81 261 279 235 221 210 139 71 78
260 261 262 265 267 269 273 276 280 290 296 304 312 305 298 255 234 184 108 60 45 125 144 130 151 157 126 71 337 334 38 161 317 164 190 143 38 23 49 164 180 143 130 122 114
259 259 261 261 262 264 267 270 274 283 291 299 308 296 283 231 207 175 125 108 99 168 160 190 213 196 193 141 9 76 125 348 240 174 176 129 145 359 58 139 156 123 128 146 140
262 261 258 257 258 261 263 263 265 275 284 294 302 288 254 236 186 162 155 138 123 176 196 227 221 253 279 199 141 142 150 134 135 156 187 213 167 124 121 162 171 127 138 131 135
266 266 259 253 255 258 258 258 261 268 276 286 293 276 227 175 169 172 173 176 103 139 212 228 240 254 268 231 193 173 202 169 170 157 177 199 201 169 163 170 178 164 157 131 141
264 261 265 255 252 252 254 256 259 263 268 276 275 250 210 187 176 171 183 171 142 84 283 220 229 209 210 181 51 348 237 183 177 183 224 242 219 207 183 174 154 146 150 127 128
250 257 259 257 248 248 251 255 259 265 261 263 252 218 201 188 178 175 179 170 147 135 88 105 106 156 207 190 28 34 18 22 306 225 231 242 221 217 195 188 193 193 146 137 140
244 249 255 252 241 241 246 256 256 264 269 267 257 230 206 193 186 180 187 189 179 143 193 127 118 135 207 266 330 355 21 274 315 229 252 250 242 214 215 219 212 234 217 192 174
242 242 249 258 247 235 243 248 254 266 280 260 254 227 199 199 196 187 190 200 197 217 265 254 178 248 298 225 220 332 293 314 322 284 228 237 224 210 214 225 226 233 255 251 254
237 237 237 238 243 241 243 251 252 276 284 268 241 215 199 200 205 197 197 207 221 211 248 269 259 266 256 205 203 286 297 318 306 201 157 189 209 209 224 230 234 236 235 246 250
235 235 233 230 230 229 244 250 256 258 331 241 208 200 199 200 201 202 201 213 220 228 250 243 244 272 235 217 221 247 312 311 286 257 161 193 213 224 224 229 236 246 242 249 250
234 232 231 229 226 223 239 238 232 217 246 231 192 192 195 205 188 199 204 209 218 243 241 249 281 280 197 192 259 281 284 284 244 249 209 223 239 232 224 250 260 255 259 247 246
230 229 229 226 225 221 217 210 201 209 225 213 198 197 201 204 203 188 193 205 212 228 222 229 260 207 204 226 248 256 261 272 254 11 215 222 271 279 276 272 273 266 263 264 245
224 227 227 220 217 218 203 195 218 209 215 203 198 201 203 209 210 207 200 209 213 226 226 225 233 230 217 253 234 240 275 231 217 189 251 225 245 292 248 245 266 276 267 254 250
220 222 224 218 214 207 197 205 220 183 215 214 202 204 203 205 210 209 211 214 221 228 229 219 231 233 227 260 273 253 250 252 245 220 315 235 274 287 271 257 269 264 254 257 243
218 220 223 214 214 202 205 214 219 200 198 204 215 207 202 202 202 202 208 219 215 214 224 226 211 226 222 230 250 241 227 218 217 150 244 251 256 273 276 255 251 262 272 258 260
215 217 221 207 208 204 214 218 213 211 213 200 207 212 211 207 208 208 211 220 227 226 229 227 219 221 225 218 247 236 232 233 242 224 174 212 241 281 201 180 270 330 325 263 255
211 211 219 202 192 216 221 215 214 221 218 218 208 202 211 219 210 213 222 228 229 229 222 225 226 232 232 254 267 261 239 235 229 220 235 253 261 260 231 261 259 269 280 304 261
206 202 209 202 202 216 222 221 222 222 213 225 215 207 207 224 222 219 228 234 241 239 227 215 218 222 243 256 249 236 233 247 263 254 241 228 251 273 274 270 273 293 272 275 257
194 186 196 197 214 218 217 220 219 223 219 220 224 218 202 200 220 227 228 232 224 228 224 222 220 222 226 234 226 235 243 252 262 245 256 255 267 264 267 274 283 271 260 253 260
185 193 190 197 209 213 217 221 221 223 225 218 222 220 217 216 209 215 219 217 215 232 228 215 199 220 241 239 242 242 235 240 245 249 249 268 268 266 260 269 268 266 240 247 261
188 193 195 208 210 211 212 219 222 221 218 222 220 220 221 238 209 230 219 222 225 218 213 210 221 223 226 232 239 243 245 244 249 249 257 264 267 273 260 263 272 246 236 246 255
191 186 199 203 210 211 217 215 222 225 226 224 223 221 226 223 210 230 242 242 235 220 207 206 210 217 232 241 239 245 243 247 254 255 260 259 264 275 276 264 260 255 241 239 252